CZ-6A DEB, 56659

Orbit data source: Space-Track

CZ-6A DEB, 56659 is space debris in SSO originally from a launch on Fri, 11 Nov 2022 UTC launched from the Taiyaun Space Center, China (TSC). Debris objects in space refer to the collection of defunct objects orbiting the Earth. Examples of debris include non-operational satellites, rocket bodies, and fragments generated from explosions, collisions, or faulty payload assembly.

Loading next visibility...
Identifier
56659, 2022-151AGK
Orbit
SSO
Country
Flag of CNCN / PRC
Related business
Manufacturer
SAST
Mission
Spacecraft
Bus & Motor
Unknown
Mass
Unknown
Launch date (UTC)
2022-11-11 (4 years ago)
Launch vehicle
Unknown
Launch site
Taiyaun Space Center, China (TSC)
Object type
Payload
Rocket body
Debris
Shape & HBR
Unknown shape, 0.1 m
Radar Cross Section
Medium (>0.1 m² and <1 m²)

Expand to show TLE details & history
Last TLE update: 15 hours ago

TLE from 15 hours ago
0 CZ-6A DEB
1 56659U 22151AGK 26265.34221699  .00001926  00000-0  66569-3 0  9992
2 56659  98.7131 297.7763 0025246  44.6478 315.6735 14.36772743181885
Epoch: 2026-09-22T08:12Z
TLE epoch observation values (Epoch: 2026-09-22T08:12:47.547Z)
Latitude
-0.00005°
Longitude
173.36913°
Altitude
759.23 km
Speed
7.482 km/s
True Right ascension
19h 51m 06s
True Declination
0° 00' 00"
Sunlit
Object was in full shadow at epoch
Visualization orbit readout
Latitude
Unknown
Longitude
Unknown
Altitude
Unknown
Speed
Unknown
Apparent Right ascension
Unknown
Apparent Declination
Unknown
Sunlit
N/A
Visualization observer readout
Local Sidereal Time
16:28:03
Azimuth
Unknown
Elevation
Unknown
Doppler factor
Unknown
Orbital elements
Apogee altitude
784.354 km
Perigee altitude
748.281 km
Semi-major axis
7,144.455 km
Eccentricity
0.00252
Inclination
98.7131°
RAAN
297.7763°
Arg. of periapsis
44.6478°
True anomaly
315.4709°
Mean anomaly
315.6735°
Eccentric anomaly
315.57224°
Mean motion
3.59409 °/min
Orbital period
100.16 mins
BSTAR
0.00066569
Loading maneuver chart data...
Computing Atmospheric mass density...
Loading historical data...
Loading historical data...
Loading historical data...
Loading historical data...
Loading historical data...
Loading historical data...
Loading historical data...

Documentation

Showing up to 5 results
|